Tracking 22124 objects as of 23-Jan-2021
HD Live streaming from Space Station
objects crossing your sky now

SL-14 R/B

Track SL-14 R/B now!
10-day predictions


NORAD ID: 11087
Int'l Code: 1978-100D
Perigee: 1,694.6 km
Apogee: 1,708.1 km
Inclination: 82.5 °
Period: 120.3 minutes
Semi major axis: 8072 km
RCS: 5.2593 m2 (large)
Launch date: October 26, 1978
Source: Commonwealth of Independent States (former USSR) (CIS)
Launch site: PLESETSK MISSILE AND SPACE COMPLEX (PKMTR)

Note: This is a ROCKET BODY
aabbcc
Your satellite tracking list
Your tracking list is empty




NASA's NSSDC Master Catalog

Two Line Element Set (TLE):
1 11087U 78100D   21023.39101742 -.00000020  00000-0 -36521-3 0  9992
2 11087  82.5468  72.0044 0008352 289.1009  81.8559 11.97025888846155
Source of the keplerian elements: AFSPC